Home > Weather > Starnberg > Past weeks

Flag for Germany Past Weather in Starnberg, Bavaria, Germany — Yesterday and Last 2 Weeks

Now
63 °F

Passing clouds.


Feels Like: 63 °F
Forecast: 57 / 78 °F
Wind: 1 mph from North

Location: Landsberg

Current Time: Jun 30, 2016 at 3:46:51 AM

Latest Report: Jun 30, 2016 at 2:20 AM


Visibility: N/A

Pressure: 29.98 "Hg (27.97 "Hg at 590m altitude)

Humidity: 83%

Dew Point: 57 °F

Location of StarnbergLocation

Past Weather in Starnberg — Graph

°F

Starnberg Temperature Yesterday

Maximum temperature yesterday: 75 °F (at 5:00 PM)
Minimum temperature yesterday: 61 °F (at 3:20 AM)
Average temperature yesterday: 68 °F

High & Low Weather Summary for the Past Weeks

 TemperatureHumidityPressure
High88 °F (Jun 24, 4:20 PM)100% (Jun 17, 3:20 AM)30.30 "Hg (Jun 17, 3:20 AM)
Low48 °F (Jun 17, 5:20 AM)34% (Jun 28, 5:20 PM)29.59 "Hg (Jun 16, 8:20 AM)
Average63 °F72%30.05 "Hg
* Reported Jun 15 2:20 AM — Jun 30 2:20 AM, Starnberg, Weather by CustomWeather, © 2016

Note: Actual official high and low records may vary slightly from our data, if they occured in-between our weather recording intervals... More about our weather records

Advertising

Starnberg Weather History for the Previous 24 Hours

Scroll right to see more
 ConditionsComfort  
Time TempWeatherWind HumidityBarometerVisibility
2:20 AM
Thu, Jun 30
63 °FPassing clouds.1 mph83%29.98 "HgN/A
1:20 AM63 °FPassing clouds.5 mph83%29.95 "HgN/A
12:20 AM64 °FPassing clouds.7 mph78%29.98 "HgN/A
11:20 PM
Wed, Jun 29
66 °FSprinkles. Partly cloudy.7 mph73%29.98 "HgN/A
10:20 PM66 °FPassing clouds.6 mph73%29.98 "HgN/A
9:20 PM70 °FScattered clouds.7 mph69%29.98 "HgN/A
8:20 PM72 °FPassing clouds.3 mph65%29.98 "HgN/A
7:20 PM73 °FScattered clouds.3 mph53%29.98 "HgN/A
6:20 PM73 °FScattered clouds.5 mph57%29.98 "HgN/A
5:20 PM75 °FScattered clouds.2 mph50%29.98 "HgN/A
5:00 PM75 °FScattered clouds.2 mph54%30.01 "HgN/A
4:20 PM73 °FScattered clouds.3 mph53%30.01 "HgN/A
3:20 PM73 °FPartly sunny.6 mph53%30.01 "HgN/A
2:20 PM72 °FPartly sunny.7 mph57%30.04 "HgN/A
1:20 PM72 °FPartly sunny.8 mph57%30.04 "HgN/A
12:20 PM70 °FPartly sunny.10 mph60%30.07 "HgN/A
11:20 AM66 °FBroken clouds.10 mph68%30.07 "HgN/A
10:20 AM64 °FPartly sunny.10 mph73%30.07 "HgN/A
9:20 AM66 °FBroken clouds.9 mph68%30.07 "HgN/A
8:20 AM64 °FLight rain. Broken clouds.7 mph73%30.04 "HgN/A
7:20 AM63 °FPartly sunny.7 mph73%30.04 "HgN/A
6:20 AM61 °FBroken clouds.7 mph77%30.04 "HgN/A
5:20 AM61 °FPassing clouds.7 mph72%30.04 "HgN/A
4:20 AM63 °FPassing clouds.7 mph68%30.01 "HgN/A
3:20 AM61 °FPassing clouds.7 mph72%30.01 "HgN/A
Weather by CustomWeather, © 2016

See weather overviewHow to use our weather pages